Regional Weather Roundup
Issued by NWS

Home | Current Version | Previous Version | Graphics & Text | Print | Product List | Glossary On
Versions: 1 2 3 4 5 6 7 8 9 10 11 12 13 14 15 16 17 18 19 20 21 22 23 24 25 26 27 28 29 30 31 32 33 34 35 36 37 38 39 40 41 42 43 44 45 46 47 48 49 50
000
ASUS43 KFSD 041702
RWRSD

WEATHER ROUNDUP FOR SOUTH DAKOTA
NATIONAL WEATHER SERVICE SIOUX FALLS SD
1200 PM CDT MON MAY 04 2015

NOTE: "FAIR" INDICATES FEW OR NO CLOUDS BELOW 12,000 FEET WITH NO
SIGNIFICANT WEATHER AND/OR OBSTRUCTIONS TO VISIBILITY.


SDZ001>005-009-010-012>017-041800-
NORTHWEST AND NORTH CENTRAL SOUTH DAKOTA

CITY           SKY/WX    TMP DP  RH WIND       PRES   REMARKS
BUFFALO          N/A     49  41  74 S20       30.13F
FAITH            N/A     53  29  39 SW10      30.23R
MOBRIDGE       CLOUDY    62  36  37 VRB3      30.21S
$$

SDZ012>016-024>037-041>051-057-063-072>074-041800-
SOUTHWEST AND SOUTH CENTRAL SOUTH DAKOTA

CITY           SKY/WX    TMP DP  RH WIND       PRES   REMARKS
RAPID CTY ARPT CLOUDY    47  39  74 NE6       30.22F
PIERRE         CLOUDY    63  26  24 E10       30.21S
CUSTER         LGT RAIN  39  32  76 E9        30.21R
ELLSWORTH AFB  CLOUDY    46  40  79 E5        30.22F
PHILIP         CLOUDY    56  26  31 SE7       30.23R
PINE RIDGE     CLOUDY    50  38  63 E8        30.21R
WINNER         PTSUNNY   65  22  19 E18       30.20S
$$

SDZ004>011-016>023-039-040-041800-
NORTHEAST SOUTH DAKOTA

CITY           SKY/WX    TMP DP  RH WIND       PRES   REMARKS
ABERDEEN       PTSUNNY   67  23  19 N9        30.23R
WATERTOWN      MOSUNNY   64  26  23 N6        30.22R
BROOKINGS      MOSUNNY   64  28  25 E9        30.21S
SISSETON         N/A     66  24  20 N9        30.21R
$$

SDZ017-020-022-023-036>040-048>070-041800-
SOUTHEAST SOUTH DAKOTA

CITY           SKY/WX    TMP DP  RH WIND       PRES   REMARKS
SIOUX FALLS    PTSUNNY   67  32  27 E13G18    30.17F
HURON          PTSUNNY   69  24  18 NE9       30.19F
MITCHELL       MOSUNNY   69  25  19 NE10      30.19R
YANKTON        PTSUNNY   64  30  27 NE16G22   30.16S
$$

ABBREVIATIONS USED IN REMARKS
   TC - TEMPERATURE IN CELSIUS
  WCI - WIND CHILL INDEX
   HX - HEAT INDEX
  VSB - VISIBILITY




USA.gov is the U.S. government's official web portal to all federal, state and local government web resources and services.